Year,Month,Day,Hour,Minute,Value (Times are PST for windgust in km/hr)
2014,07,18,00,00,12.90
2014,07,18,00,01,14.50
2014,07,18,00,02,9.60
2014,07,18,00,03,9.60
2014,07,18,00,04,11.30
2014,07,18,00,05,12.90
2014,07,18,00,06,9.60
2014,07,18,00,07,9.60
2014,07,18,00,08,12.90
2014,07,18,00,09,16.10
2014,07,18,00,10,14.50
2014,07,18,00,11,12.90
2014,07,18,00,12,16.10
2014,07,18,00,13,11.30
2014,07,18,00,14,11.30
2014,07,18,00,15,11.30
2014,07,18,00,16,11.30
2014,07,18,00,17,17.70
2014,07,18,00,18,16.10
2014,07,18,00,19,12.90
2014,07,18,00,20,14.50
2014,07,18,00,21,11.30
2014,07,18,00,22,9.60
2014,07,18,00,23,12.90
2014,07,18,00,24,9.60
2014,07,18,00,25,12.90
2014,07,18,00,26,12.90
2014,07,18,00,27,14.50
2014,07,18,00,28,16.10
2014,07,18,00,29,14.50
2014,07,18,00,30,12.90
2014,07,18,00,31,14.50
2014,07,18,00,32,12.90
2014,07,18,00,33,11.30
2014,07,18,00,34,12.90
2014,07,18,00,35,12.90
2014,07,18,00,36,16.10
2014,07,18,00,37,8.10
2014,07,18,00,38,9.60
2014,07,18,00,39,14.50
2014,07,18,00,40,12.90
2014,07,18,00,41,12.90
2014,07,18,00,42,11.30
2014,07,18,00,43,9.60
2014,07,18,00,44,9.60
2014,07,18,00,45,11.30
2014,07,18,00,46,12.90
2014,07,18,00,47,14.50
2014,07,18,00,48,11.30
2014,07,18,00,49,14.50
2014,07,18,00,50,12.90
2014,07,18,00,51,9.60
2014,07,18,00,52,11.30
2014,07,18,00,53,9.60
2014,07,18,00,54,11.30
2014,07,18,00,55,9.60
2014,07,18,00,56,12.90
2014,07,18,00,57,9.60
2014,07,18,00,58,9.60
2014,07,18,00,59,12.90
2014,07,18,01,00,12.90
2014,07,18,01,01,8.10
2014,07,18,01,02,14.50
2014,07,18,01,03,9.60
2014,07,18,01,04,11.30
2014,07,18,01,05,14.50
2014,07,18,01,06,9.60
2014,07,18,01,07,12.90
2014,07,18,01,08,14.50
2014,07,18,01,09,12.90
2014,07,18,01,10,11.30
2014,07,18,01,11,9.60
2014,07,18,01,12,11.30
2014,07,18,01,13,12.90
2014,07,18,01,14,11.30
2014,07,18,01,15,9.60
2014,07,18,01,16,9.60
2014,07,18,01,17,9.60
2014,07,18,01,18,11.30
2014,07,18,01,19,12.90
2014,07,18,01,20,11.30
2014,07,18,01,21,11.30
2014,07,18,01,22,11.30
2014,07,18,01,23,9.60
2014,07,18,01,24,9.60
2014,07,18,01,25,16.10
2014,07,18,01,26,12.90
2014,07,18,01,27,14.50
2014,07,18,01,28,11.30
2014,07,18,01,29,14.50
2014,07,18,01,30,17.70
2014,07,18,01,31,8.10
2014,07,18,01,32,11.30
2014,07,18,01,33,9.60
2014,07,18,01,34,11.30
2014,07,18,01,35,12.90
2014,07,18,01,36,9.60
2014,07,18,01,37,11.30
2014,07,18,01,38,14.50
2014,07,18,01,39,14.50
2014,07,18,01,40,16.10
2014,07,18,01,41,16.10
2014,07,18,01,42,16.10
2014,07,18,01,43,12.90
2014,07,18,01,44,14.50
2014,07,18,01,45,14.50
2014,07,18,01,46,17.70
2014,07,18,01,47,17.70
2014,07,18,01,48,16.10
2014,07,18,01,49,12.90
2014,07,18,01,50,16.10
2014,07,18,01,51,9.60
2014,07,18,01,52,14.50
2014,07,18,01,53,12.90
2014,07,18,01,54,14.50
2014,07,18,01,55,14.50
2014,07,18,01,56,11.30
2014,07,18,01,57,12.90
2014,07,18,01,58,11.30
2014,07,18,01,59,11.30
2014,07,18,02,00,11.30
2014,07,18,02,01,9.60
2014,07,18,02,02,9.60
2014,07,18,02,03,11.30
2014,07,18,02,04,8.10
2014,07,18,02,05,9.60
2014,07,18,02,06,8.10
2014,07,18,02,07,8.10
2014,07,18,02,08,9.60
2014,07,18,02,09,8.10
2014,07,18,02,10,6.40
2014,07,18,02,11,6.40
2014,07,18,02,12,8.10
2014,07,18,02,13,8.10
2014,07,18,02,14,6.40
2014,07,18,02,15,4.80
2014,07,18,02,16,4.80
2014,07,18,02,17,4.80
2014,07,18,02,18,3.20
2014,07,18,02,19,1.60
2014,07,18,02,20,1.60
2014,07,18,02,21,3.20
2014,07,18,02,22,3.20
2014,07,18,02,29,1.60
2014,07,18,02,30,1.60
2014,07,18,02,31,1.60
2014,07,18,02,32,3.20
2014,07,18,02,33,1.60
2014,07,18,02,48,1.60
2014,07,18,02,49,1.60
2014,07,18,02,50,1.60
2014,07,18,02,58,1.60
2014,07,18,02,59,1.60
2014,07,18,03,00,1.60
2014,07,18,03,02,1.60
2014,07,18,03,03,1.60
2014,07,18,03,04,3.20
2014,07,18,03,05,1.60
2014,07,18,03,06,1.60
2014,07,18,03,07,3.20
2014,07,18,03,08,3.20
2014,07,18,03,09,3.20
2014,07,18,03,10,3.20
2014,07,18,03,11,1.60
2014,07,18,03,12,1.60
2014,07,18,03,13,1.60
2014,07,18,03,14,1.60
2014,07,18,03,17,1.60
2014,07,18,03,18,3.20
2014,07,18,03,19,1.60
2014,07,18,03,20,1.60
2014,07,18,03,40,1.60
2014,07,18,03,41,3.20
2014,07,18,03,42,3.20
2014,07,18,03,43,3.20
2014,07,18,03,44,3.20
2014,07,18,03,45,3.20
2014,07,18,03,46,3.20
2014,07,18,03,47,1.60
2014,07,18,03,56,1.60
2014,07,18,03,57,1.60
2014,07,18,03,58,1.60
2014,07,18,03,59,1.60
2014,07,18,04,00,1.60
2014,07,18,04,01,3.20
2014,07,18,04,02,3.20
2014,07,18,04,03,3.20
2014,07,18,04,04,1.60
2014,07,18,04,05,1.60
2014,07,18,04,06,1.60
2014,07,18,04,07,1.60
2014,07,18,04,14,1.60
2014,07,18,04,15,1.60
2014,07,18,04,16,1.60
2014,07,18,04,17,3.20
2014,07,18,04,18,3.20
2014,07,18,04,19,3.20
2014,07,18,04,20,1.60
2014,07,18,04,21,1.60
2014,07,18,04,24,1.60
2014,07,18,04,26,1.60
2014,07,18,04,27,1.60
2014,07,18,04,29,3.20
2014,07,18,04,30,3.20
2014,07,18,04,31,3.20
2014,07,18,04,32,3.20
2014,07,18,04,33,3.20
2014,07,18,04,34,3.20
2014,07,18,04,35,3.20
2014,07,18,04,36,3.20
2014,07,18,04,37,3.20
2014,07,18,04,38,3.20
2014,07,18,04,39,4.80
2014,07,18,04,40,3.20
2014,07,18,04,41,4.80
2014,07,18,04,42,3.20
2014,07,18,04,43,3.20
2014,07,18,04,44,1.60
2014,07,18,04,45,1.60
2014,07,18,04,46,1.60
2014,07,18,04,47,1.60
2014,07,18,04,48,3.20
2014,07,18,04,49,3.20
2014,07,18,04,50,1.60
2014,07,18,04,51,1.60
2014,07,18,04,52,1.60
2014,07,18,04,56,1.60
2014,07,18,04,57,3.20
2014,07,18,04,58,3.20
2014,07,18,04,59,3.20
2014,07,18,05,00,1.60
2014,07,18,05,01,1.60
2014,07,18,05,02,3.20
2014,07,18,05,03,1.60
2014,07,18,05,05,1.60
2014,07,18,05,10,1.60
2014,07,18,05,11,1.60
2014,07,18,05,15,1.60
2014,07,18,05,18,1.60
2014,07,18,05,19,1.60
2014,07,18,05,22,1.60
2014,07,18,05,23,1.60
2014,07,18,05,24,1.60
2014,07,18,05,25,1.60
2014,07,18,05,26,1.60
2014,07,18,05,27,1.60
2014,07,18,05,29,1.60
2014,07,18,05,30,1.60
2014,07,18,05,31,1.60
2014,07,18,06,11,3.20
2014,07,18,06,12,3.20
2014,07,18,06,13,3.20
2014,07,18,06,14,3.20
2014,07,18,06,15,3.20
2014,07,18,06,16,3.20
2014,07,18,06,17,3.20
2014,07,18,06,18,3.20
2014,07,18,06,19,3.20
2014,07,18,06,20,1.60
2014,07,18,06,21,1.60
2014,07,18,07,14,1.60
2014,07,18,07,18,1.60
2014,07,18,07,19,1.60
2014,07,18,07,21,1.60
2014,07,18,07,22,1.60
2014,07,18,07,23,1.60
2014,07,18,07,24,3.20
2014,07,18,07,25,3.20
2014,07,18,07,26,3.20
2014,07,18,07,27,1.60
2014,07,18,07,28,1.60
2014,07,18,07,29,3.20
2014,07,18,07,30,3.20
2014,07,18,07,31,1.60
2014,07,18,07,33,1.60
2014,07,18,07,34,3.20
2014,07,18,07,35,1.60
2014,07,18,07,37,1.60
2014,07,18,07,38,1.60
2014,07,18,07,40,3.20
2014,07,18,07,41,3.20
2014,07,18,07,42,1.60
2014,07,18,07,43,1.60
2014,07,18,07,44,1.60
2014,07,18,07,49,1.60
2014,07,18,07,51,1.60
2014,07,18,07,55,3.20
2014,07,18,07,56,3.20
2014,07,18,07,57,1.60
2014,07,18,07,58,3.20
2014,07,18,07,59,3.20
2014,07,18,08,00,1.60
2014,07,18,08,03,1.60
2014,07,18,08,04,1.60
2014,07,18,08,05,1.60
2014,07,18,08,06,1.60
2014,07,18,08,07,1.60
2014,07,18,08,08,1.60
2014,07,18,08,10,1.60
2014,07,18,08,12,1.60
2014,07,18,08,15,1.60
2014,07,18,08,16,1.60
2014,07,18,08,17,1.60
2014,07,18,08,19,1.60
2014,07,18,08,20,1.60
2014,07,18,08,21,1.60
2014,07,18,08,22,1.60
2014,07,18,08,23,3.20
2014,07,18,08,24,1.60
2014,07,18,08,25,1.60
2014,07,18,08,26,1.60
2014,07,18,08,27,1.60
2014,07,18,08,28,1.60
2014,07,18,08,29,1.60
2014,07,18,08,30,3.20
2014,07,18,08,31,1.60
2014,07,18,08,32,1.60
2014,07,18,08,33,1.60
2014,07,18,08,34,1.60
2014,07,18,08,35,1.60
2014,07,18,08,36,3.20
2014,07,18,08,37,3.20
2014,07,18,08,38,3.20
2014,07,18,08,39,3.20
2014,07,18,08,40,1.60
2014,07,18,08,41,1.60
2014,07,18,08,42,1.60
2014,07,18,08,43,1.60
2014,07,18,08,44,1.60
2014,07,18,08,45,3.20
2014,07,18,08,46,1.60
2014,07,18,08,47,3.20
2014,07,18,08,48,3.20
2014,07,18,08,49,1.60
2014,07,18,08,51,1.60
2014,07,18,08,52,1.60
2014,07,18,08,53,1.60
2014,07,18,08,54,1.60
2014,07,18,08,55,1.60
2014,07,18,08,57,1.60
2014,07,18,08,58,1.60
2014,07,18,08,59,4.80
2014,07,18,09,00,3.20
2014,07,18,09,01,3.20
2014,07,18,09,02,1.60
2014,07,18,09,03,1.60
2014,07,18,09,04,1.60
2014,07,18,09,05,1.60
2014,07,18,09,06,1.60
2014,07,18,09,07,4.80
2014,07,18,09,08,8.10
2014,07,18,09,09,4.80
2014,07,18,09,10,3.20
2014,07,18,09,11,3.20
2014,07,18,09,12,3.20
2014,07,18,09,13,3.20
2014,07,18,09,14,3.20
2014,07,18,09,15,3.20
2014,07,18,09,16,1.60
2014,07,18,09,17,4.80
2014,07,18,09,18,4.80
2014,07,18,09,19,3.20
2014,07,18,09,20,4.80
2014,07,18,09,21,3.20
2014,07,18,09,22,1.60
2014,07,18,09,23,4.80
2014,07,18,09,24,8.10
2014,07,18,09,25,6.40
2014,07,18,09,26,3.20
2014,07,18,09,27,3.20
2014,07,18,09,28,1.60
2014,07,18,09,29,4.80
2014,07,18,09,30,1.60
2014,07,18,09,31,4.80
2014,07,18,09,32,3.20
2014,07,18,09,34,3.20
2014,07,18,09,35,3.20
2014,07,18,09,36,4.80
2014,07,18,09,37,4.80
2014,07,18,09,38,4.80
2014,07,18,09,39,1.60
2014,07,18,09,40,3.20
2014,07,18,09,41,1.60
2014,07,18,09,42,1.60
2014,07,18,09,43,3.20
2014,07,18,09,44,1.60
2014,07,18,09,45,3.20
2014,07,18,09,46,4.80
2014,07,18,09,47,4.80
2014,07,18,09,48,1.60
2014,07,18,09,49,1.60
2014,07,18,09,50,4.80
2014,07,18,09,51,3.20
2014,07,18,09,52,3.20
2014,07,18,09,53,3.20
2014,07,18,09,54,3.20
2014,07,18,09,55,1.60
2014,07,18,09,56,3.20
2014,07,18,09,57,4.80
2014,07,18,09,58,3.20
2014,07,18,09,59,6.40
2014,07,18,10,00,4.80
2014,07,18,10,01,1.60
2014,07,18,10,02,3.20
2014,07,18,10,03,3.20
2014,07,18,10,04,1.60
2014,07,18,10,05,1.60
2014,07,18,10,06,1.60
2014,07,18,10,07,1.60
2014,07,18,10,08,6.40
2014,07,18,10,09,6.40
2014,07,18,10,10,3.20
2014,07,18,10,11,6.40
2014,07,18,10,12,3.20
2014,07,18,10,13,4.80
2014,07,18,10,14,6.40
2014,07,18,10,15,3.20
2014,07,18,10,16,1.60
2014,07,18,10,17,3.20
2014,07,18,10,18,1.60
2014,07,18,10,19,3.20
2014,07,18,10,20,3.20
2014,07,18,10,21,3.20
2014,07,18,10,22,3.20
2014,07,18,10,23,4.80
2014,07,18,10,24,4.80
2014,07,18,10,25,6.40
2014,07,18,10,26,6.40
2014,07,18,10,27,3.20
2014,07,18,10,28,1.60
2014,07,18,10,29,1.60
2014,07,18,10,30,3.20
2014,07,18,10,31,1.60
2014,07,18,10,32,3.20
2014,07,18,10,33,1.60
2014,07,18,10,34,1.60
2014,07,18,10,35,1.60
2014,07,18,10,36,3.20
2014,07,18,10,37,1.60
2014,07,18,10,38,3.20
2014,07,18,10,39,6.40
2014,07,18,10,40,4.80
2014,07,18,10,41,6.40
2014,07,18,10,42,8.10
2014,07,18,10,43,9.60
2014,07,18,10,44,4.80
2014,07,18,10,45,8.10
2014,07,18,10,46,3.20
2014,07,18,10,47,3.20
2014,07,18,10,48,3.20
2014,07,18,10,49,3.20
2014,07,18,10,50,4.80
2014,07,18,10,51,4.80
2014,07,18,10,52,6.40
2014,07,18,10,53,6.40
2014,07,18,10,54,3.20
2014,07,18,10,55,4.80
2014,07,18,10,56,6.40
2014,07,18,10,57,8.10
2014,07,18,10,58,11.30
2014,07,18,10,59,11.30
2014,07,18,11,00,4.80
2014,07,18,11,01,4.80
2014,07,18,11,02,3.20
2014,07,18,11,03,3.20
2014,07,18,11,04,3.20
2014,07,18,11,05,1.60
2014,07,18,11,06,1.60
2014,07,18,11,07,3.20
2014,07,18,11,08,3.20
2014,07,18,11,09,4.80
2014,07,18,11,10,4.80
2014,07,18,11,11,8.10
2014,07,18,11,12,8.10
2014,07,18,11,13,3.20
2014,07,18,11,14,4.80
2014,07,18,11,15,6.40
2014,07,18,11,16,6.40
2014,07,18,11,17,6.40
2014,07,18,11,18,8.10
2014,07,18,11,19,8.10
2014,07,18,11,20,6.40
2014,07,18,11,21,8.10
2014,07,18,11,22,12.90
2014,07,18,11,23,3.20
2014,07,18,11,24,4.80
2014,07,18,11,25,4.80
2014,07,18,11,26,4.80
2014,07,18,11,27,4.80
2014,07,18,11,28,8.10
2014,07,18,11,29,8.10
2014,07,18,11,30,8.10
2014,07,18,11,31,8.10
2014,07,18,11,32,9.60
2014,07,18,11,33,8.10
2014,07,18,11,34,4.80
2014,07,18,11,35,4.80
2014,07,18,11,36,6.40
2014,07,18,11,37,9.60
2014,07,18,11,38,8.10
2014,07,18,11,39,11.30
2014,07,18,11,40,8.10
2014,07,18,11,41,8.10
2014,07,18,11,42,9.60
2014,07,18,11,43,8.10
2014,07,18,11,44,12.90
2014,07,18,11,45,8.10
2014,07,18,11,46,12.90
2014,07,18,11,47,8.10
2014,07,18,11,48,8.10
2014,07,18,11,49,11.30
2014,07,18,11,50,11.30
2014,07,18,11,51,11.30
2014,07,18,11,52,8.10
2014,07,18,11,53,11.30
2014,07,18,11,54,11.30
2014,07,18,11,55,8.10
2014,07,18,11,56,11.30
2014,07,18,11,57,11.30
2014,07,18,11,58,6.40
2014,07,18,11,59,1.60
2014,07,18,12,00,8.10
2014,07,18,12,01,9.60
2014,07,18,12,02,11.30
2014,07,18,12,03,9.60
2014,07,18,12,04,8.10
2014,07,18,12,05,3.20
2014,07,18,12,06,4.80
2014,07,18,12,07,8.10
2014,07,18,12,08,9.60
2014,07,18,12,09,11.30
2014,07,18,12,10,11.30
2014,07,18,12,11,8.10
2014,07,18,12,12,4.80
2014,07,18,12,13,8.10
2014,07,18,12,14,4.80
2014,07,18,12,15,4.80
2014,07,18,12,16,4.80
2014,07,18,12,17,6.40
2014,07,18,12,18,4.80
2014,07,18,12,19,8.10
2014,07,18,12,20,11.30
2014,07,18,12,21,3.20
2014,07,18,12,22,6.40
2014,07,18,12,23,3.20
2014,07,18,12,24,4.80
2014,07,18,12,25,4.80
2014,07,18,12,26,4.80
2014,07,18,12,27,4.80
2014,07,18,12,28,4.80
2014,07,18,12,29,3.20
2014,07,18,12,30,6.40
2014,07,18,12,31,4.80
2014,07,18,12,32,3.20
2014,07,18,12,33,4.80
2014,07,18,12,34,3.20
2014,07,18,12,35,3.20
2014,07,18,12,36,1.60
2014,07,18,12,37,4.80
2014,07,18,12,38,3.20
2014,07,18,12,39,1.60
2014,07,18,12,40,3.20
2014,07,18,12,41,4.80
2014,07,18,12,42,3.20
2014,07,18,12,43,3.20
2014,07,18,12,44,3.20
2014,07,18,12,45,4.80
2014,07,18,12,46,3.20
2014,07,18,12,47,3.20
2014,07,18,12,48,3.20
2014,07,18,12,49,4.80
2014,07,18,12,50,8.10
2014,07,18,12,51,8.10
2014,07,18,12,52,6.40
2014,07,18,12,53,4.80
2014,07,18,12,54,6.40
2014,07,18,12,55,8.10
2014,07,18,12,56,8.10
2014,07,18,12,57,4.80
2014,07,18,12,58,6.40
2014,07,18,12,59,9.60
2014,07,18,13,00,11.30
2014,07,18,13,01,8.10
2014,07,18,13,02,8.10
2014,07,18,13,03,11.30
2014,07,18,13,04,4.80
2014,07,18,13,05,6.40
2014,07,18,13,06,8.10
2014,07,18,13,07,4.80
2014,07,18,13,08,4.80
2014,07,18,13,09,6.40
2014,07,18,13,10,8.10
2014,07,18,13,11,4.80
2014,07,18,13,12,4.80
2014,07,18,13,13,4.80
2014,07,18,13,14,4.80
2014,07,18,13,15,3.20
2014,07,18,13,16,1.60
2014,07,18,13,17,3.20
2014,07,18,13,18,8.10
2014,07,18,13,19,4.80
2014,07,18,13,20,4.80
2014,07,18,13,21,1.60
2014,07,18,13,22,9.60
2014,07,18,13,23,6.40
2014,07,18,13,24,4.80
2014,07,18,13,25,3.20
2014,07,18,13,26,6.40
2014,07,18,13,27,4.80
2014,07,18,13,28,4.80
2014,07,18,13,29,3.20
2014,07,18,13,30,4.80
2014,07,18,13,31,4.80
2014,07,18,13,32,3.20
2014,07,18,13,33,4.80
2014,07,18,13,34,4.80
2014,07,18,13,35,6.40
2014,07,18,13,36,8.10
2014,07,18,13,37,11.30
2014,07,18,13,38,8.10
2014,07,18,13,39,9.60
2014,07,18,13,40,6.40
2014,07,18,13,41,6.40
2014,07,18,13,42,6.40
2014,07,18,13,43,8.10
2014,07,18,13,44,4.80
2014,07,18,13,45,4.80
2014,07,18,13,46,3.20
2014,07,18,13,47,8.10
2014,07,18,13,48,4.80
2014,07,18,13,49,8.10
2014,07,18,13,50,8.10
2014,07,18,13,51,8.10
2014,07,18,13,52,6.40
2014,07,18,13,53,8.10
2014,07,18,13,54,4.80
2014,07,18,13,55,8.10
2014,07,18,13,56,4.80
2014,07,18,13,57,3.20
2014,07,18,13,58,3.20
2014,07,18,13,59,6.40
2014,07,18,14,00,4.80
2014,07,18,14,01,6.40
2014,07,18,14,02,8.10
2014,07,18,14,03,11.30
2014,07,18,14,04,8.10
2014,07,18,14,05,6.40
2014,07,18,14,06,4.80
2014,07,18,14,07,4.80
2014,07,18,14,08,4.80
2014,07,18,14,09,6.40
2014,07,18,14,10,4.80
2014,07,18,14,11,3.20
2014,07,18,14,12,8.10
2014,07,18,14,13,3.20
2014,07,18,14,14,3.20
2014,07,18,14,15,8.10
2014,07,18,14,16,8.10
2014,07,18,14,17,6.40
2014,07,18,14,18,1.60
2014,07,18,14,19,3.20
2014,07,18,14,20,3.20
2014,07,18,14,21,4.80
2014,07,18,14,22,9.60
2014,07,18,14,23,4.80
2014,07,18,14,24,1.60
2014,07,18,14,25,4.80
2014,07,18,14,26,4.80
2014,07,18,14,27,4.80
2014,07,18,14,28,4.80
2014,07,18,14,29,4.80
2014,07,18,14,30,4.80
2014,07,18,14,31,4.80
2014,07,18,14,32,3.20
2014,07,18,14,33,4.80
2014,07,18,14,34,4.80
2014,07,18,14,35,3.20
2014,07,18,14,36,9.60
2014,07,18,14,37,6.40
2014,07,18,14,38,4.80
2014,07,18,14,39,9.60
2014,07,18,14,40,11.30
2014,07,18,14,41,4.80
2014,07,18,14,42,12.90
2014,07,18,14,43,27.40
2014,07,18,14,44,20.90
2014,07,18,14,45,19.30
2014,07,18,14,46,8.10
2014,07,18,14,47,12.90
2014,07,18,14,48,19.30
2014,07,18,14,49,14.50
2014,07,18,14,50,9.60
2014,07,18,14,51,11.30
2014,07,18,14,52,16.10
2014,07,18,14,53,14.50
2014,07,18,14,54,12.90
2014,07,18,14,55,25.70
2014,07,18,14,56,14.50
2014,07,18,14,57,16.10
2014,07,18,14,58,25.70
2014,07,18,14,59,14.50
2014,07,18,15,00,9.60
2014,07,18,15,01,16.10
2014,07,18,15,02,16.10
2014,07,18,15,03,12.90
2014,07,18,15,04,20.90
2014,07,18,15,05,20.90
2014,07,18,15,06,17.70
2014,07,18,15,07,14.50
2014,07,18,15,08,14.50
2014,07,18,15,09,12.90
2014,07,18,15,10,19.30
2014,07,18,15,11,16.10
2014,07,18,15,12,14.50
2014,07,18,15,13,20.90
2014,07,18,15,14,20.90
2014,07,18,15,15,22.50
2014,07,18,15,16,20.90
2014,07,18,15,17,25.70
2014,07,18,15,18,27.40
2014,07,18,15,19,14.50
2014,07,18,15,20,22.50
2014,07,18,15,21,24.20
2014,07,18,15,22,27.40
2014,07,18,15,23,32.20
2014,07,18,15,24,20.90
2014,07,18,15,25,12.90
2014,07,18,15,26,20.90
2014,07,18,15,27,14.50
2014,07,18,15,28,24.20
2014,07,18,15,29,25.70
2014,07,18,15,30,22.50
2014,07,18,15,31,17.70
2014,07,18,15,32,27.40
2014,07,18,15,33,17.70
2014,07,18,15,34,20.90
2014,07,18,15,35,22.50
2014,07,18,15,36,20.90
2014,07,18,15,37,19.30
2014,07,18,15,38,17.70
2014,07,18,15,39,14.50
2014,07,18,15,40,24.20
2014,07,18,15,41,19.30
2014,07,18,15,42,22.50
2014,07,18,15,43,20.90
2014,07,18,15,44,20.90
2014,07,18,15,45,17.70
2014,07,18,15,46,12.90
2014,07,18,15,47,12.90
2014,07,18,15,48,22.50
2014,07,18,15,49,12.90
2014,07,18,15,50,11.30
2014,07,18,15,51,8.10
2014,07,18,15,52,12.90
2014,07,18,15,53,19.30
2014,07,18,15,54,19.30
2014,07,18,15,55,6.40
2014,07,18,15,56,20.90
2014,07,18,15,57,16.10
2014,07,18,15,58,11.30
2014,07,18,15,59,9.60
2014,07,18,16,00,14.50
2014,07,18,16,01,20.90
2014,07,18,16,02,22.50
2014,07,18,16,03,19.30
2014,07,18,16,04,8.10
2014,07,18,16,05,11.30
2014,07,18,16,06,17.70
2014,07,18,16,07,19.30
2014,07,18,16,08,20.90
2014,07,18,16,09,12.90
2014,07,18,16,10,9.60
2014,07,18,16,11,16.10
2014,07,18,16,12,19.30
2014,07,18,16,13,14.50
2014,07,18,16,14,14.50
2014,07,18,16,15,27.40
2014,07,18,16,16,19.30
2014,07,18,16,17,22.50
2014,07,18,16,18,22.50
2014,07,18,16,19,17.70
2014,07,18,16,20,16.10
2014,07,18,16,21,20.90
2014,07,18,16,22,16.10
2014,07,18,16,23,17.70
2014,07,18,16,24,17.70
2014,07,18,16,25,16.10
2014,07,18,16,26,20.90
2014,07,18,16,27,19.30
2014,07,18,16,28,19.30
2014,07,18,16,29,19.30
2014,07,18,16,30,32.20
2014,07,18,16,31,14.50
2014,07,18,16,32,19.30
2014,07,18,16,33,19.30
2014,07,18,16,34,17.70
2014,07,18,16,35,12.90
2014,07,18,16,36,24.20
2014,07,18,16,37,12.90
2014,07,18,16,38,11.30
2014,07,18,16,39,20.90
2014,07,18,16,40,24.20
2014,07,18,16,41,17.70
2014,07,18,16,42,12.90
2014,07,18,16,43,14.50
2014,07,18,16,44,16.10
2014,07,18,16,45,20.90
2014,07,18,16,46,20.90
2014,07,18,16,47,27.40
2014,07,18,16,48,19.30
2014,07,18,16,49,22.50
2014,07,18,16,50,24.20
2014,07,18,16,51,25.70
2014,07,18,16,52,22.50
2014,07,18,16,53,24.20
2014,07,18,16,54,11.30
2014,07,18,16,55,11.30
2014,07,18,16,56,22.50
2014,07,18,16,57,22.50
2014,07,18,16,58,25.70
2014,07,18,16,59,19.30
2014,07,18,17,00,14.50
2014,07,18,17,01,14.50
2014,07,18,17,02,16.10
2014,07,18,17,03,19.30
2014,07,18,17,04,20.90
2014,07,18,17,05,16.10
2014,07,18,17,06,17.70
2014,07,18,17,07,16.10
2014,07,18,17,08,14.50
2014,07,18,17,09,14.50
2014,07,18,17,10,22.50
2014,07,18,17,11,19.30
2014,07,18,17,12,16.10
2014,07,18,17,13,19.30
2014,07,18,17,14,14.50
2014,07,18,17,15,27.40
2014,07,18,17,16,25.70
2014,07,18,17,17,24.20
2014,07,18,17,18,30.60
2014,07,18,17,19,20.90
2014,07,18,17,20,19.30
2014,07,18,17,21,24.20
2014,07,18,17,22,33.80
2014,07,18,17,23,22.50
2014,07,18,17,24,25.70
2014,07,18,17,25,30.60
2014,07,18,17,26,25.70
2014,07,18,17,27,25.70
2014,07,18,17,28,19.30
2014,07,18,17,29,20.90
2014,07,18,17,30,27.40
2014,07,18,17,31,25.70
2014,07,18,17,32,30.60
2014,07,18,17,33,35.40
2014,07,18,17,34,32.20
2014,07,18,17,35,30.60
2014,07,18,17,36,22.50
2014,07,18,17,37,25.70
2014,07,18,17,38,32.20
2014,07,18,17,39,30.60
2014,07,18,17,40,24.20
2014,07,18,17,41,24.20
2014,07,18,17,42,30.60
2014,07,18,17,43,25.70
2014,07,18,17,44,20.90
2014,07,18,17,45,27.40
2014,07,18,17,46,25.70
2014,07,18,17,47,32.20
2014,07,18,17,48,29.00
2014,07,18,17,49,27.40
2014,07,18,17,50,24.20
2014,07,18,17,51,20.90
2014,07,18,17,52,32.20
2014,07,18,17,53,24.20
2014,07,18,17,54,35.40
2014,07,18,17,55,32.20
2014,07,18,17,56,25.70
2014,07,18,17,57,16.10
2014,07,18,17,58,25.70
2014,07,18,17,59,20.90
2014,07,18,18,00,24.20
2014,07,18,18,01,27.40
2014,07,18,18,02,27.40
2014,07,18,18,03,14.50
2014,07,18,18,04,24.20
2014,07,18,18,05,24.20
2014,07,18,18,06,35.40
2014,07,18,18,07,33.80
2014,07,18,18,08,24.20
2014,07,18,18,09,29.00
2014,07,18,18,10,32.20
2014,07,18,18,11,16.10
2014,07,18,18,12,32.20
2014,07,18,18,13,27.40
2014,07,18,18,14,29.00
2014,07,18,18,15,22.50
2014,07,18,18,16,20.90
2014,07,18,18,17,30.60
2014,07,18,18,18,22.50
2014,07,18,18,19,20.90
2014,07,18,18,20,27.40
2014,07,18,18,21,25.70
2014,07,18,18,22,17.70
2014,07,18,18,23,20.90
2014,07,18,18,24,22.50
2014,07,18,18,25,24.20
2014,07,18,18,26,22.50
2014,07,18,18,27,30.60
2014,07,18,18,28,24.20
2014,07,18,18,29,22.50
2014,07,18,18,30,17.70
2014,07,18,18,31,17.70
2014,07,18,18,32,24.20
2014,07,18,18,33,25.70
2014,07,18,18,34,12.90
2014,07,18,18,35,17.70
2014,07,18,18,36,17.70
2014,07,18,18,37,12.90
2014,07,18,18,38,12.90
2014,07,18,18,39,24.20
2014,07,18,18,40,16.10
2014,07,18,18,41,9.60
2014,07,18,18,42,19.30
2014,07,18,18,43,11.30
2014,07,18,18,44,19.30
2014,07,18,18,45,19.30
2014,07,18,18,46,17.70
2014,07,18,18,47,16.10
2014,07,18,18,48,16.10
2014,07,18,18,49,16.10
2014,07,18,18,50,6.40
2014,07,18,18,51,14.50
2014,07,18,18,52,14.50
2014,07,18,18,53,16.10
2014,07,18,18,54,16.10
2014,07,18,18,55,24.20
2014,07,18,18,56,20.90
2014,07,18,18,57,14.50
2014,07,18,18,58,14.50
2014,07,18,18,59,11.30
2014,07,18,19,00,14.50
2014,07,18,19,01,30.60
2014,07,18,19,02,25.70
2014,07,18,19,03,14.50
2014,07,18,19,04,11.30
2014,07,18,19,05,11.30
2014,07,18,19,06,30.60
2014,07,18,19,07,27.40
2014,07,18,19,08,19.30
2014,07,18,19,09,14.50
2014,07,18,19,10,12.90
2014,07,18,19,11,17.70
2014,07,18,19,12,12.90
2014,07,18,19,13,19.30
2014,07,18,19,14,24.20
2014,07,18,19,15,17.70
2014,07,18,19,16,24.20
2014,07,18,19,17,20.90
2014,07,18,19,18,14.50
2014,07,18,19,19,14.50
2014,07,18,19,20,16.10
2014,07,18,19,21,24.20
2014,07,18,19,22,8.10
2014,07,18,19,23,17.70
2014,07,18,19,24,14.50
2014,07,18,19,25,16.10
2014,07,18,19,26,14.50
2014,07,18,19,27,9.60
2014,07,18,19,28,12.90
2014,07,18,19,29,22.50
2014,07,18,19,30,16.10
2014,07,18,19,31,16.10
2014,07,18,19,32,17.70
2014,07,18,19,33,24.20
2014,07,18,19,34,14.50
2014,07,18,19,35,9.60
2014,07,18,19,36,12.90
2014,07,18,19,37,6.40
2014,07,18,19,38,11.30
2014,07,18,19,39,12.90
2014,07,18,19,40,22.50
2014,07,18,19,41,17.70
2014,07,18,19,42,9.60
2014,07,18,19,43,6.40
2014,07,18,19,44,6.40
2014,07,18,19,45,14.50
2014,07,18,19,46,22.50
2014,07,18,19,47,9.60
2014,07,18,19,48,8.10
2014,07,18,19,49,12.90
2014,07,18,19,50,14.50
2014,07,18,19,51,14.50
2014,07,18,19,52,16.10
2014,07,18,19,53,19.30
2014,07,18,19,54,17.70
2014,07,18,19,55,12.90
2014,07,18,19,56,9.60
2014,07,18,19,57,9.60
2014,07,18,19,58,9.60
2014,07,18,19,59,11.30
2014,07,18,20,00,8.10
2014,07,18,20,01,14.50
2014,07,18,20,02,12.90
2014,07,18,20,03,16.10
2014,07,18,20,04,17.70
2014,07,18,20,05,16.10
2014,07,18,20,06,17.70
2014,07,18,20,07,9.60
2014,07,18,20,08,14.50
2014,07,18,20,09,12.90
2014,07,18,20,10,16.10
2014,07,18,20,11,12.90
2014,07,18,20,12,6.40
2014,07,18,20,13,8.10
2014,07,18,20,14,14.50
2014,07,18,20,15,14.50
2014,07,18,20,16,16.10
2014,07,18,20,17,16.10
2014,07,18,20,18,12.90
2014,07,18,20,19,16.10
2014,07,18,20,20,17.70
2014,07,18,20,21,19.30
2014,07,18,20,22,14.50
2014,07,18,20,23,24.20
2014,07,18,20,24,14.50
2014,07,18,20,25,17.70
2014,07,18,20,26,11.30
2014,07,18,20,27,16.10
2014,07,18,20,28,14.50
2014,07,18,20,29,19.30
2014,07,18,20,30,22.50
2014,07,18,20,31,24.20
2014,07,18,20,32,11.30
2014,07,18,20,33,19.30
2014,07,18,20,34,16.10
2014,07,18,20,35,19.30
2014,07,18,20,36,19.30
2014,07,18,20,37,17.70
2014,07,18,20,38,9.60
2014,07,18,20,39,9.60
2014,07,18,20,40,20.90
2014,07,18,20,41,12.90
2014,07,18,20,42,14.50
2014,07,18,20,43,12.90
2014,07,18,20,44,12.90
2014,07,18,20,45,20.90
2014,07,18,20,46,22.50
2014,07,18,20,47,11.30
2014,07,18,20,48,25.70
2014,07,18,20,49,9.60
2014,07,18,20,50,16.10
2014,07,18,20,51,8.10
2014,07,18,20,52,3.20
2014,07,18,20,53,9.60
2014,07,18,20,54,11.30
2014,07,18,20,55,12.90
2014,07,18,20,56,6.40
2014,07,18,20,57,11.30
2014,07,18,20,58,12.90
2014,07,18,20,59,16.10
2014,07,18,21,00,6.40
2014,07,18,21,01,8.10
2014,07,18,21,02,8.10
2014,07,18,21,03,9.60
2014,07,18,21,04,11.30